Starlink 4256

operational
NORAD ID: 52994 Int'l Des: 2022-076 Owner: SPXS Country: US Constellation: starlink
LEOCIRCULAR

Über Starlink 4256

Beschreibung wird geladen...

Live-Position

3D-Globus wird geladen...

Nächste Überflüge

Höhenverlauf

Altitude vs Time

uPlot chart will show altitude changes over time

Zweizeiliger Elementsatz

1 52994U 22076J 25352.68881851 .00002383 00000-0 16776-3 0 9994
2 52994 53.2187 97.7487 0001503 91.1429 268.9736 15.08846467190611
Epoch: 18. Dez. 2025 • Age: 10 hours

Aktueller Status

Höhe 542.6 km
Geschwindigkeit 7.60 km/s
Subsatellitenpunkt 40.74°N, 108.71°E
Startdatum 7. Juli 2022
Alter 3.4 years
Typ internet

Technische Details

Klassifizierung Payload
Masse 297.00 kg
Trockenmasse 275.00 kg
Gesamtmasse 297.00 kg
Länge 0.20 m
Durchmesser 2.80 m
Spannweite 9.00 m
Form Box + pan
Hersteller SPXS
Bus-Typ Starlink
Phasenstatus In Orbit
Besitzer/Staat SPXS/US

Große Konstellationen

Loading constellations...